Regional Weather Roundup
Issued by NWS

Home | Current Version | Previous Version | Text Only | Print | Product List | Glossary Off
Versions: 1 2 3 4 5 6 7 8 9 10 11 12 13 14 15 16 17 18 19 20 21 22 23 24 25 26 27 28 29 30 31 32 33 34 35 36 37 38 39 40 41 42 43 44 45 46 47 48 49 50

000
ASUS43 KFSD 301102
RWRSD

WEATHER ROUNDUP FOR SOUTH DAKOTA
NATIONAL WEATHER SERVICE SIOUX FALLS SD
600 AM CDT SAT APR 30 2016

NOTE: "FAIR" INDICATES FEW OR NO CLOUDS BELOW 12,000 FEET WITH NO
SIGNIFICANT WEATHER AND/OR OBSTRUCTIONS TO VISIBILITY.


SDZ001>005-009-010-012>017-301200-
NORTHWEST AND NORTH CENTRAL SOUTH DAKOTA

CITY           SKY/WX    TMP DP  RH WIND       PRES   REMARKS
BUFFALO          N/A     40  34  79 NE7       30.03R
FAITH            N/A     36  33  89 N7        30.06S
MOBRIDGE       CLOUDY    42  39  89 N12       30.05S
$$

SDZ012>016-024>037-041>051-057-063-072>074-301200-
SOUTHWEST AND SOUTH CENTRAL SOUTH DAKOTA

CITY           SKY/WX    TMP DP  RH WIND       PRES   REMARKS
RAPID CTY ARPT CLOUDY    39  37  92 N14       30.03R
PIERRE         CLOUDY    39  37  92 N12       30.00F
CUSTER         CLOUDY    31  28  89 NE18G32   29.95S WCI  19
ELLSWORTH AFB  CLOUDY    40  40 100 N13       30.03
PHILIP         CLOUDY    42  38  85 N15       30.01S
PINE RIDGE     LGT RAIN  37  35  92 N13       29.95R FOG
WINNER         LGT RAIN  43  39  86 NE13      29.94S
$$

SDZ004>011-016>023-039-040-301200-
NORTHEAST SOUTH DAKOTA

CITY           SKY/WX    TMP DP  RH WIND       PRES   REMARKS
ABERDEEN       PTCLDY    42  36  79 NE12      30.08R
WATERTOWN      CLOUDY    39  33  79 NE15      30.02F
BROOKINGS      CLOUDY    42  37  82 E12       29.97F
SISSETON         N/A     41  33  73 E12       30.10S
$$

SDZ017-020-022-023-036>040-048>070-301200-
SOUTHEAST SOUTH DAKOTA

CITY           SKY/WX    TMP DP  RH WIND       PRES   REMARKS
SIOUX FALLS    CLOUDY    44  37  76 E17G28    29.92F
HURON          CLOUDY    41  38  89 NE8       30.00S
MITCHELL       CLOUDY    43  39  86 NE13      29.96S
YANKTON        MOCLDY    43  37  81 NE17G24   29.87S
$$

ABBREVIATIONS USED IN REMARKS
   TC - TEMPERATURE IN CELSIUS
  WCI - WIND CHILL INDEX
   HX - HEAT INDEX
  VSB - VISIBILITY





USA.gov is the U.S. government's official web portal to all federal, state and local government web resources and services.